DMSP 5D-2 F13 DEB

Satellite information

Favourite Embed

Satellite Type and Status

DEBRISIN ORBIT

Key statistics

Satellite DMSP 5D-2 F13 DEB at a glance.

Uptime

11223

Days in orbit

Revolutions

≈ 14.3

Per day

Orbit

SSO

Sun Synchronous Orbit

Inclination

98.6

Latest

Satellite identification and parameters

Extended collection of information and parameters for DMSP 5D-2 F13 DEB.

Object identification

Identified? True

Debris? True

Object name: DMSP 5D-2 F13 DEB

International designator: 1995-015FR

Object number (NORAD): 40677

Object ID (CCSDS): 40677

Country: UNITED STATES OF AMERICA (US)

Current information (Y/N): Y

RCS size: SMALL

Orbital parameters

Period: 100.849 minutes

Inclination: 98.5983 deg

SMA: 7176.952 km

Apoapsis: 834.218 km

Periapsis: 763.416 km

RAAN: 355.1794 deg

Eccentricy: 0.00493262

Argument of periapsis: 109.538 deg

Mean anomaly: 251.1137 deg

Mean motion: 14.27883204 rev/day

Mean motion (dot): 0.00001074 rev/day2

B* drag term: 0.00044565842 1/REarth

Two-line elements (TLE)

Creation date: Dec. 6, 2025, 12:48 p.m.

Reference frame: TEME

Reference center: EARTH

Epoch: Dec. 6, 2025, 6:21 a.m. UTC

TLE line 0: 0 DMSP 5D-2 F13 DEB

TLE line 1: 1 40677U 95015FR 25340.26485335 .00001074 00000-0 44566-3 0 9994

TLE line 2: 2 40677 98.5983 355.1794 0049326 109.5380 251.1137 14.27883204552890

Live tracking on map

Real-time ground track for satellite DMSP 5D-2 F13 DEB.

In-orbit conjunctions

A list of the most updated potential collisions computed for object DMSP 5D-2 F13 DEB.

Target Orbit TCA Probability of collision Miss distance Type
NOAA 16 DEB SSO 2025-05-27 15:05:39 0.0002401695 68.0 (m) DEBRIS
COSMOS 1275 DEB LEO 2025-03-12 09:54:48 0.0003703265 59.0 (m) DEBRIS

Associated space launch

Military meteorological satellite

DMSP 5D-2 F13 DEB was lifted into orbit during the mission ‘Atlas E | DMSP-5D2 F13’, on board a Atlas E space rocket.

The launch took place on March 24, 1995, 2:05 p.m. from Space Launch Complex 3W.

For more information about the launch, click the button.

Launch to space Atlas E | DMSP-5D2 F13
Atlas E | DMSP-5D2 F13

Agency: N/A

Status: Launch Successful

Launch date: March 24, 1995, 2:05 p.m. UTC

Rocket: Atlas E

Launch pad: Space Launch Complex 3W

Location: Vandenberg SFB, CA, USA

...

Latest news about this satellite

There are no fresh news available about this satellite. Check back as we update our databases every day.


Newsletter sign-up

Weekly statistics, charts and insights to help you stay on top of the space industry.